EW5944 Weather Reports


time (UTC)temp
C
wind
direction
speed
KPH
gust
KPH
rain 1hr
cm
rain 24hr
cm
rain mn
cm
humidity
%
barometer
mb
20260504035236 7 280 0.0 0.0 0.00 0.00 0.00 1017.9
20260504034235 7 280 0.0 0.0 0.00 0.00 0.00 1017.6
20260504033234 8 280 0.0 0.0 0.00 0.00 0.00 1017.6
20260504032202 8 280 0.0 0.0 0.00 0.00 0.00 1017.6
20260504031202 8 280 0.0 0.0 0.00 0.00 0.00 1018.3
20260504030201 8 280 0.0 0.0 0.00 0.00 0.00 1018.3
20260504025200 9 280 0.0 0.0 0.00 0.00 0.00 1017.9
20260504024159 9 280 0.0 0.0 0.00 0.00 0.00 1017.9
20260504023158 10 280 0.0 0.0 0.00 0.00 0.00 1017.9
20260504022156 10 280 0.0 0.0 0.00 0.00 0.00 1017.6
20260504021156 10 280 0.0 0.0 0.00 0.00 0.00 1017.6
20260504020155 10 280 0.0 0.0 0.00 0.00 0.00 1017.6
20260504015154 11 280 0.0 0.0 0.00 0.00 0.00 1017.6
20260504014152 11 280 0.0 0.0 0.00 0.00 0.00 1017.3
20260504013152 11 280 0.0 0.0 0.00 0.00 0.00 1017.3
20260504012151 11 280 0.0 0.0 0.00 0.00 0.00 1016.9
20260504011150 12 280 0.0 0.0 0.00 0.00 0.00 1017.3
20260504010149 12 280 0.0 0.0 0.00 0.00 0.00 1017.3
20260504005117 12 280 0.0 0.0 0.00 0.00 0.00 1017.3
20260504004116 12 280 0.0 0.0 0.00 0.00 0.00 1016.9
20260504003115 13 280 0.0 0.0 0.00 0.00 0.00 1016.9
20260504002043 13 280 0.0 0.0 0.00 0.00 0.00 1016.6
20260504001042 13 280 0.0 0.0 0.00 0.00 0.00 1016.9
20260504000041 14 280 0.0 0.0 0.00 0.00 0.00 1016.9
20260503235040 14 280 0.0 0.0 0.00 0.00 0.00 1016.9
20260503234039 14 282 0.0 0.0 0.00 0.00 0.00 1016.6
20260503233038 15 282 0.0 0.0 0.00 0.00 0.00 1016.6
20260503232037 15 282 0.0 0.0 0.00 0.00 0.00 1016.6
20260503231036 15 282 0.0 0.0 0.00 0.00 0.00 1016.6
20260503230035 15 282 0.0 0.0 0.00 0.00 0.00 1016.6
20260503225034 16 282 0.0 0.0 0.00 0.00 0.00 1016.6
20260503224034 16 282 0.0 0.0 0.00 0.00 0.00 1016.3
20260503223033 16 282 0.0 0.0 0.00 0.00 0.00 1016.3
20260503222001 16 282 0.0 0.0 0.00 0.00 0.00 1016.3
20260503220959 16 270 0.0 0.0 0.00 0.00 0.00 1016.3
20260503215959 17 270 0.0 0.0 0.00 0.00 0.00 1016.3
20260503214958 17 196 0.0 0.0 0.00 0.00 0.00 1015.9
20260503213956 17 143 0.0 0.0 0.00 0.00 0.00 1016.3
20260503212956 17 284 0.0 0.0 0.00 0.00 0.00 1016.3
20260503211955 18 284 0.0 4.8 0.00 0.00 0.00 1016.3
20260503210954 18 294 0.0 0.0 0.00 0.00 0.00 1016.3
20260503205953 18 295 0.0 0.0 0.00 0.00 0.00 1016.3
20260503204952 18 295 0.0 0.0 0.00 0.00 0.00 1016.3
20260503203920 18 223 0.0 4.8 0.00 0.00 0.00 1016.6
20260503202919 18 185 0.0 0.0 0.00 0.00 0.00 1016.6
20260503201918 18 185 0.0 4.8 0.00 0.00 0.00 1016.6
20260503200917 18 185 0.0 0.0 0.00 0.00 0.00 1016.9
20260503195916 17 261 0.0 1.6 0.00 0.00 0.00 1016.9
20260503194845 17 285 0.0 3.2 0.00 0.00 0.00 1017.3
20260503193812 17 172 0.0 0.0 0.00 0.00 0.00 1017.3
20260503192811 17 172 0.0 0.0 0.00 0.00 0.00 1017.6
20260503191810 16 172 0.0 1.6 0.00 0.00 0.00 1017.6
20260503190809 16 180 3.2 4.8 0.00 0.00 0.00 1017.9
20260503185808 16 150 0.0 0.0 0.00 0.00 0.00 1017.9
20260503184807 16 116 0.0 0.0 0.00 0.00 0.00 1017.9
20260503183806 15 145 0.0 1.6 0.00 0.00 0.00 1018.3
20260503182806 15 162 0.0 4.8 0.00 0.00 0.00 1018.3
20260503181805 15 160 1.6 4.8 0.00 0.00 0.00 1018.3
20260503180804 15 264 0.0 4.8 0.00 0.00 0.00 1018.3
20260503175803 15 219 0.0 3.2 0.00 0.00 0.00 1018.6
20260503174731 14 224 0.0 0.0 0.00 0.00 0.00 1018.6
20260503173730 13 191 0.0 1.6 0.00 0.00 0.00 1019.0
20260503172729 13 150 0.0 0.0 0.00 0.00 0.00 1019.3
20260503171728 13 123 0.0 3.2 0.00 0.00 0.00 1019.3
20260503170656 13 291 0.0 3.2 0.00 0.00 0.00 1019.6
20260503150614 10 141 0.0 0.0 0.00 0.00 0.00 1020.7
20260503130502 6 274 0.0 0.0 0.00 0.00 0.00 1021.0
20260503080654 3 274 0.0 0.0 0.00 0.00 0.00 1017.6
20260503072619 5 274 0.0 0.0 0.00 0.00 0.00 1017.3
20260503071618 5 274 0.0 0.0 0.00 0.00 0.00 1017.3
20260503070618 5 274 0.0 0.0 0.00 0.00 0.00 1017.3
20260503054539 6 274 0.0 0.0 0.00 0.00 0.00 1016.9
20260503053538 6 274 0.0 0.0 0.00 0.00 0.00 1016.9
20260503052537 6 274 0.0 0.0 0.00 0.00 0.00 1016.9
20260503051536 6 274 0.0 0.0 0.00 0.00 0.00 1016.9
20260503050504 6 274 0.0 0.0 0.00 0.00 0.00 1017.6
20260503045401 6 274 0.0 0.0 0.00 0.00 0.00 1017.6
20260503044400 6 274 0.0 0.0 0.00 0.00 0.00 1017.3
20260503043359 6 274 0.0 0.0 0.00 0.00 0.00 1017.3
20260503042358 6 274 0.0 0.0 0.00 0.00 0.00 1017.3
20260503041357 6 274 0.0 0.0 0.00 0.00 0.00 1016.9
20260503040356 6 274 0.0 0.0 0.00 0.00 0.00 1016.9